Location: Angwan Shehu
(11.2514°N, 7.4613°E)
Time: 03:02:26
(UTC+00:00)

Vanguard 3 - Pass Details

Date: 03 August 2021
Orbit: 510 x 3260 km, 33.3° (Epoch: 16 September)

Event Time Altitude Azimuth Distance (km) Brightness Sun altitude
Rises 22:15:25 0° 305° (NW) 7,058 12.4 -55.2°
Reaches altitude 10° 22:20:07 10° 308° (NW) 6,151 12.0 -55.8°
Enters shadow 22:36:29 60° 344° (NNW) 3,405 10.1 -57.9°
